Regional Weather Roundup
Issued by NWS

Home | Current Version | Previous Version | Text Only | Print | Product List | Glossary On
Versions: 1 2 3 4 5 6 7 8 9 10 11 12 13 14 15 16 17 18 19 20 21 22 23 24 25 26 27 28 29 30 31 32 33 34 35 36 37 38 39 40 41 42 43 44 45 46 47 48 49 50
000
ASUS44 KBMX 210410
RWRAL

ALABAMA REGIONAL WEATHER ROUNDUP
NATIONAL WEATHER SERVICE BIRMINGHAM AL
1100 PM CDT SAT SEP 20 2014

NOTE: "FAIR" INDICATES FEW OR NO CLOUDS BELOW 12,000 FEET
WITH NO SIGNIFICANT WEATHER AND/OR OBSTRUCTIONS TO VISIBILITY.

THE REMARK "TC" DENOTES TEMPERATURE IN DEGREES CELSIUS.

ALZ001>011-014-016>018-020-210500-
NORTH ALABAMA

CITY           SKY/WX    TMP DP  RH WIND       PRES   REMARKS
MUSCLE SHOALS  CLEAR     68  63  84 CALM      30.05S
HUNTSVILLE     CLEAR     71  63  75 CALM      30.06R
DECATUR        CLEAR     67  63  87 CALM      30.06S
HALEYVILLE     FAIR      65  65 100 CALM      30.10R
GADSDEN        CLEAR     64  61  88 CALM      30.06R
$$

ALZ012-013-022-023-030>036-040>044-210500-
WEST CENTRAL ALABAMA

CITY           SKY/WX    TMP DP  RH WIND       PRES   REMARKS
TUSCALOOSA     CLEAR     70  65  84 CALM      30.04R
$$

ALZ015-024>027-033>036-040>044-210500-
CENTRAL ALABAMA

CITY           SKY/WX    TMP DP  RH WIND       PRES   REMARKS
BIRMINGHAM     CLEAR     69  64  84 CALM      30.08R
MONTGOMERY     CLEAR     68  65  90 CALM      30.01S
SHELBY CO ARPT CLEAR     69  67  93 CALM      30.06R
MAXWELL AFB    CLEAR     68  68 100 W1        30.01S
GREENVILLE     FAIR      67  64  90 CALM      30.01F
$$

ALZ019-021-028-029-037-038-045>048-210500-
EAST CENTRAL ALABAMA

CITY           SKY/WX    TMP DP  RH WIND       PRES   REMARKS
ANNISTON       CLEAR     67  65  93 CALM      30.06R
ALEXANDER CITY CLEAR     69  67  93 CALM      30.05R
AUBURN         CLEAR     68  61  77 NE3       30.07R
$$

ALZ051>064-210500-
SOUTHWEST ALABAMA

CITY           SKY/WX    TMP DP  RH WIND       PRES   REMARKS
MOBILE         PTCLDY    71  68  90 NE5       30.02S
BROOKLEY FIELD CLEAR     77  69  76 NE9       30.02S
EVERGREEN      CLEAR     68  65  90 CALM      30.01F
$$

ALZ049-050-065>069-210500-
SOUTHEAST ALABAMA

CITY           SKY/WX    TMP DP  RH WIND       PRES   REMARKS
DOTHAN         CLEAR     67  65  93 CALM      30.04F
OZARK          CLEAR     70  66  87 NE5       30.00F
TROY           CLEAR     67  65  93 CALM      30.02F
EUFAULA        FAIR      66  64  93 CALM      29.99F
$$


USA.gov is the U.S. government's official web portal to all federal, state and local government web resources and services.